Flag for Canada Weather past 2 weeks in Lloydminster, Alberta, Canada

Now
16 °F

Light snow. Mostly cloudy.


Feels Like: -3 °F
Forecast: 1 / 18 °F
Wind: 25 mph from North

Location: Lloydminister

Current Time: Mar 2, 2015 at 10:02:39 AM

Latest Report: Mar 2, 2015 at 9:00 AM


Visibility: 2 mi

Pressure: 30.03 "Hg

Humidity: 79%

Dew point: 10 °F

Location of LloydminsterLocation

Historic Weather in Lloydminster — Graph

°F

Lloydminster temperature yesterday

Maximum temperature yesterday: 18 °F (at 2:00 PM)
Minimum temperature yesterday: 3 °F (at 4:00 AM)
Average temperature yesterday: 10 °F

Past Weeks' High & Low Weather Summary

 TemperatureHumidityPressure
High39 °F (Feb 23, 1:00 PM)93% (Feb 16, 1:48 AM)30.81 "Hg (Feb 16, 1:48 AM)
Low-15 °F (Feb 17, 5:00 AM)54% (Feb 21, 1:00 PM)29.84 "Hg (Feb 19, 4:00 PM)
Average11 °F80%30.30 "Hg
* Reported Feb 15 8:00 AM — Mar 2 8:00 AM, Lloydminster, Weather by CustomWeather, © 2015

Note: Actual official high and low records may vary slightly from our data, if they occured in-between our weather recording intervals... More about our weather records

Advertising

Lloydminster weather history for previous 24 hours

 ConditionsComfort  
Time TempWeatherWind HumidityBarometerVisibility
8:00 AM
Mon, Mar 2
18 °FLight snow. Overcast.25 mph86%29.96 "Hg1 mi
7:00 AM18 °FLight snow. Overcast.17 mph93%29.91 "Hg1 mi
6:50 AM18 °FLight snow. Overcast.24 mph93%29.90 "Hg1 mi
6:00 AM18 °FLight snow. Overcast.18 mph86%29.88 "Hg1 mi
5:51 AM18 °FLight snow. Overcast.17 mph86%29.87 "Hg1 mi
5:00 AM18 °FLight snow. Overcast.15 mph93%29.85 "Hg1 mi
4:50 AM18 °FLight snow. Overcast.15 mph93%29.85 "Hg2 mi
4:00 AM18 °FMostly cloudy.15 mph79%29.84 "Hg9 mi
3:00 AM16 °FMostly cloudy.12 mph79%29.85 "Hg9 mi
2:00 AM14 °FMostly cloudy.13 mph85%29.88 "Hg9 mi
1:00 AM10 °FMostly cloudy.12 mph85%29.91 "Hg9 mi
12:00 AM10 °FClear.13 mph85%29.95 "Hg9 mi
11:00 PM
Sun, Mar 1
10 °FClear.12 mph92%29.98 "Hg9 mi
10:00 PM9 °FClear.9 mph92%30.03 "Hg15 mi
9:00 PM10 °FClear.13 mph85%30.04 "Hg15 mi
8:00 PM12 °FClear.13 mph85%30.08 "Hg15 mi
7:00 PM12 °FClear.9 mph85%30.11 "Hg15 mi
6:00 PM16 °FClear.12 mph79%30.13 "Hg15 mi
5:00 PM18 °FSunny.10 mph79%30.16 "Hg15 mi
4:00 PM18 °FSunny.9 mph79%30.19 "Hg15 mi
3:00 PM18 °FSunny.10 mph79%30.22 "Hg15 mi
2:00 PM18 °FSunny.10 mph73%30.25 "Hg15 mi
1:00 PM16 °FPassing clouds.7 mph79%30.28 "Hg15 mi
12:00 PM16 °FPassing clouds.9 mph86%30.30 "Hg15 mi
11:00 AM14 °FSunny.10 mph92%30.31 "Hg15 mi
10:00 AM10 °FPassing clouds.8 mph92%30.32 "Hg15 mi
Weather by CustomWeather, © 2015

See weather overviewHow to use our weather pages